CST,Max TemperatureF,Mean TemperatureF,Min TemperatureF,Max Dew PointF,MeanDew PointF,Min DewpointF,Max Humidity, Mean Humidity, Min Humidity, Max Sea Level PressureIn, Mean Sea Level PressureIn, Min Sea Level PressureIn, Max VisibilityMiles, Mean VisibilityMiles, Min VisibilityMiles, Max Wind SpeedMPH, Mean Wind SpeedMPH, Max Gust SpeedMPH,PrecipitationIn, CloudCover, Events, WindDirDegrees
2011-11-1,55,48,41,41,32,26,76,56,35,30.17,29.97,29.78,10,10,10,20,11,23,0.02,3,Rain,304
2011-11-2,49,38,26,29,24,16,78,55,31,30.35,30.29,30.19,10,10,10,17,9,28,0.00,0,,300
2011-11-3,56,40,23,22,17,15,68,44,20,30.29,30.21,30.10,10,10,10,22,11,26,0.00,0,,185
2011-11-4,58,47,36,23,19,15,44,32,19,30.09,29.94,29.81,10,10,10,39,24,46,0.00,0,,164
2011-11-5,59,51,42,40,33,25,67,54,40,29.78,29.59,29.44,10,10,10,33,22,44,T,0,,153
2011-11-6,52,45,37,44,34,22,82,64,46,29.80,29.49,29.34,10,9,5,30,21,39,0.05,7,Rain,210
2011-11-7,46,36,26,25,23,16,69,55,40,30.23,30.10,29.85,10,10,10,30,13,38,0.00,3,,256
2011-11-8,51,36,20,24,20,15,81,55,29,30.24,30.18,30.14,10,10,10,21,9,24,0.00,0,,181
2011-11-9,44,33,22,25,21,16,74,59,43,30.19,30.15,30.12,10,10,10,31,15,38,0.00,4,,300
2011-11-10,41,33,25,22,19,17,74,57,40,30.19,30.08,29.80,10,10,10,22,12,26,0.00,4,,275
2011-11-11,56,43,30,29,23,16,64,50,35,29.74,29.58,29.48,10,10,10,24,10,32,0.00,1,,193
2011-11-12,56,43,29,26,23,19,69,50,30,29.48,29.30,29.14,10,10,10,14,7,17,0.00,0,,185
2011-11-13,45,39,32,29,26,23,75,63,50,29.33,29.29,29.18,10,10,9,20,10,24,0.00,4,,263
2011-11-14,41,35,28,35,29,22,89,72,54,29.54,29.42,29.34,10,8,1,20,9,24,0.14,5,Rain-Snow,237
2011-11-15,39,32,24,30,23,15,88,73,58,29.96,29.68,29.54,10,8,0,46,15,55,0.01,7,Fog-Snow,259
2011-11-16,27,19,11,15,11,5,76,63,50,30.22,30.11,29.97,10,10,10,28,13,35,0.00,2,,274
2011-11-17,30,18,5,12,7,0,83,63,42,30.22,30.06,29.68,10,10,10,18,8,25,0.00,3,,180
2011-11-18,33,28,22,24,18,12,78,61,43,29.91,29.71,29.63,10,8,1,13,5,16,0.01,5,Snow,281
2011-11-19,25,17,9,16,7,1,74,67,59,30.35,30.07,29.87,10,10,10,25,18,32,0.00,3,,355
2011-11-20,22,12,1,6,3,-5,87,69,51,30.43,30.35,30.25,10,10,10,20,8,24,0.00,1,,176
2011-11-21,36,24,11,23,14,5,81,69,56,30.27,30.21,30.14,10,10,6,17,10,24,0.00,0,,162
2011-11-22,42,35,28,30,27,23,85,74,62,30.15,30.04,29.95,8,6,4,22,12,28,0.00,4,,183
2011-11-23,52,40,27,31,27,22,85,65,44,30.01,29.93,29.80,10,9,6,17,12,21,0.00,0,,175
2011-11-24,57,43,28,31,28,22,85,61,36,29.78,29.70,29.65,10,10,9,17,8,22,0.00,0,,173
2011-11-25,46,36,26,33,29,23,85,75,65,29.76,29.70,29.65,10,10,10,17,11,22,0.00,2,,15
2011-11-26,37,34,31,31,27,22,89,78,66,30.30,30.08,29.77,10,8,1,30,21,38,0.01,8,Snow,324
2011-11-27,34,26,18,22,17,13,77,64,51,30.35,30.24,30.04,10,10,10,21,9,25,0.00,2,,259
2011-11-28,53,36,19,32,21,15,77,60,43,30.40,30.10,29.91,10,10,10,30,14,35,0.00,1,,278
2011-11-29,40,25,9,17,13,6,80,57,33,30.43,30.27,29.99,10,10,10,16,7,20,0.00,0,,197
2011-11-30,36,29,22,28,22,15,85,71,56,30.31,30.01,29.91,10,8,1,24,11,29,0.02,6,Snow,8